EW9766 Weather Reports


time (UTC)temp
C
wind
direction
speed
KPH
gust
KPH
rain 1hr
cm
rain 24hr
cm
rain mn
cm
humidity
%
barometer
mb
20260507204535 21 359 16.1 29.0 0.00 0.00 0.00 33 1017.7
20260507203036 21 344 17.7 29.0 0.00 0.00 0.00 29 1017.9
20260507201537 21 337 14.5 30.6 0.00 0.00 0.00 29 1018.1
20260507200106 21 308 11.3 25.7 0.00 0.00 0.00 29 1018.2
20260507194607 21 294 11.3 24.1 0.00 0.00 0.00 32 1018.3
20260507191535 19 18 14.5 25.7 0.00 0.00 0.00 37 1018.6
20260507190033 18 18 14.5 24.1 0.00 0.00 0.00 38 1018.8
20260507184534 18 14 11.3 19.3 0.00 0.00 0.00 41 1019.0
20260507181537 18 53 9.7 17.7 0.00 0.00 0.00 44 1019.2
20260507180032 17 26 6.4 16.1 0.00 0.00 0.00 48 1019.4
20260507174537 16 26 9.7 17.7 0.00 0.00 0.00 51 1019.7
20260507171539 15 23 8.0 16.1 0.00 0.00 0.00 53 1019.7
20260507170034 14 35 9.7 16.1 0.00 0.00 0.00 55 1019.6
20260507164641 13 22 12.9 19.3 0.00 0.00 0.00 56 1019.6
20260507163034 13 21 14.5 22.5 0.00 0.00 0.00 58 1019.6
20260507161539 13 43 9.7 20.9 0.00 0.00 0.00 60 1019.5
20260507160032 13 38 9.7 16.1 0.00 0.00 0.00 62 1019.6
20260507154534 13 36 9.7 14.5 0.00 0.00 0.00 63 1019.5
20260507153034 13 31 6.4 11.3 0.00 0.00 0.00 65 1019.6
20260507151531 12 44 6.4 11.3 0.00 0.00 0.00 66 1019.7
20260507150048 12 13 4.8 11.3 0.00 0.00 0.00 66 1019.7
20260507144537 12 334 3.2 9.7 0.00 0.00 0.00 67 1019.7
20260507141532 11 17 3.2 6.4 0.00 0.00 0.00 72 1019.5
20260507140031 10 30 4.8 11.3 0.00 0.00 0.00 75 1019.5
20260507134537 8 67 6.4 11.3 0.00 0.00 0.00 78 1019.3
20260507133106 8 118 4.8 11.3 0.00 0.00 0.00 77 1019.3
20260507131536 9 27 6.4 14.5 0.00 0.00 0.00 77 1019.2
20260507130030 9 349 9.7 17.7 0.00 0.00 0.00 76 1019.1
20260507124531 10 350 11.3 19.3 0.00 0.00 0.00 73 1019.1
20260507123030 10 314 11.3 20.9 0.00 0.00 0.00 72 1019.0
20260507121536 10 286 9.7 25.7 0.00 0.00 0.00 72 1018.8
20260507120033 10 287 11.3 25.7 0.00 0.00 0.00 72 1018.8
20260507113034 10 261 11.3 38.6 0.00 0.00 0.00 73 1018.8
20260507111531 10 246 11.3 32.2 0.00 0.00 0.00 73 1018.8
20260507110032 11 248 12.9 35.4 0.00 0.00 0.00 72 1018.8
20260507103036 11 244 12.9 33.8 0.00 0.00 0.00 70 1019.0
20260507101531 11 266 11.3 29.0 0.00 0.00 0.00 68 1019.2
20260507100048 11 259 12.9 40.2 0.00 0.00 0.00 68 1019.2
20260507094606 11 256 12.9 38.6 0.00 0.00 0.00 68 1019.2
20260507091535 11 229 16.1 33.8 0.00 0.00 0.00 69 1019.3
20260507084535 11 230 14.5 33.8 0.00 0.00 0.00 69 1019.7
20260507083028 12 226 14.5 35.4 0.00 0.00 0.00 69 1019.7
20260507081533 12 240 11.3 35.4 0.00 0.00 0.00 69 1019.7
20260507080149 12 249 9.7 24.1 0.00 0.00 0.00 69 1019.7
20260507074532 12 262 6.4 29.0 0.00 0.00 0.00 69 1019.8
20260507071607 12 275 8.0 22.5 0.00 0.00 0.00 70 1019.8
20260507070030 12 260 8.0 20.9 0.00 0.00 0.00 70 1019.9
20260507064532 12 266 8.0 24.1 0.00 0.00 0.00 69 1020.0
20260507063033 12 264 8.0 24.1 0.00 0.00 0.00 69 1020.2
20260507061535 12 267 6.4 25.7 0.00 0.00 0.00 69 1020.3
20260507060106 12 322 6.4 16.1 0.00 0.00 0.00 68 1020.4
20260507053032 13 284 8.0 19.3 0.00 0.00 0.00 65 1020.5
20260507050037 13 202 8.0 33.8 0.00 0.00 0.00 62 1020.6
20260507044534 13 252 9.7 27.4 0.00 0.00 0.00 62 1020.3
20260507041529 13 209 11.3 24.1 0.00 0.00 0.00 60 1020.4
20260507040045 13 207 9.7 19.3 0.00 0.00 0.00 59 1020.3
20260507034607 13 243 4.8 14.5 0.00 0.00 0.00 58 1020.3
20260507033031 14 233 6.4 16.1 0.00 0.00 0.00 58 1020.3
20260507031530 15 228 4.8 11.3 0.00 0.00 0.00 59 1020.3
20260507030038 15 246 4.8 19.3 0.00 0.00 0.00 58 1020.3
20260507024535 16 260 9.7 19.3 0.00 0.00 0.00 56 1020.3
20260507023150 17 262 12.9 30.6 0.00 0.00 0.00 54 1020.2
20260507021532 17 260 11.3 32.2 0.00 0.00 0.00 51 1020.0
20260507020029 18 264 12.9 37.0 0.00 0.00 0.00 50 1019.8
20260507014552 18 256 11.3 22.5 0.00 0.00 0.00 48 1019.7
20260507013148 19 257 12.9 29.0 0.00 0.00 0.00 46 1019.6
20260507011535 19 245 11.3 29.0 0.00 0.00 0.00 46 1019.8
20260507010031 20 242 11.3 24.1 0.00 0.00 0.00 44 1019.8
20260507004530 21 234 9.7 24.1 0.00 0.00 0.00 41 1019.7
20260507003033 21 224 12.9 29.0 0.00 0.00 0.00 41 1019.6
20260507001606 21 231 11.3 32.2 0.00 0.00 0.00 41 1019.5
20260507000030 21 237 11.3 35.4 0.00 0.00 0.00 40 1019.4
20260506234536 22 255 14.5 35.4 0.00 0.00 0.00 38 1019.2
20260506233035 23 252 11.3 29.0 0.00 0.00 0.00 38 1019.2
20260506231531 23 233 9.7 27.4 0.00 0.00 0.00 38 1019.2
20260506230107 23 243 11.3 32.2 0.00 0.00 0.00 38 1019.2
20260506224607 23 234 11.3 33.8 0.00 0.00 0.00 39 1019.3
20260506223107 22 240 11.3 35.4 0.00 0.00 0.00 40 1019.5
20260506221535 22 270 11.3 27.4 0.00 0.00 0.00 39 1019.6
20260506220032 23 267 14.5 35.4 0.00 0.00 0.00 38 1019.4
20260506211534 23 278 8.0 25.7 0.00 0.00 0.00 42 1019.4
20260506210032 23 274 11.3 30.6 0.00 0.00 0.00 43 1019.5